Showing default

FLOCK 4G 22, 62645

Orbit data source: Space-Track

FLOCK 4G 22, 62645 is a payload satellite owned by Planet (US) in SSO that was launched on Tue, 14 Jan 2025 UTC via an FALCON 9 launch vehicle from the Air Force Western Test Range (AFWTR). Payload-class satellites include a variety of spacecraft equipped with specific instruments for various scientific and technological missions. These include communications satellites like Starlink; space stations such as the ISS; scientific satellites like the Hubble; Earth observation satellites from companies like Planet Labs, Umbra, and HawkEye 360; GPS; miniature CubeSats for education and research; and military/defense satellites.

Loading next visibility...
Identifier
62645, 2025-009AN
Orbit
SSO
Country
Flag of USUS
Related business
Manufacturer
Planet
Mission
Operational Commercial Imaging
Bus & Motor
CUBESAT 3U, Unknown motor
Mass
5.7 kg wet, 5.7 kg dry
Launch date (UTC)
2025-01-14 (10 months ago)
Launch vehicle
FALCON 9
Launch site
Air Force Western Test Range (AFWTR)
Object type
Payload
Rocket body
Debris
Shape & HBR
Box + 2 Pan, 1.0 m
Radar Cross Section
0.072 m², Medium (>0.1 m² and < 1m²)

Expand to show TLE details & history
Last TLE update: 2 days ago

TLE from 2 days ago
0 FLOCK 4G 22
1 62645U 25009AN  25306.18389020  .00011717  00000-0  48761-3 0  9992
2 62645  97.4223  24.9294 0002985  47.9688 312.1803 15.23909390 44285
Epoch: 2025-11-02T04:24Z
TLE epoch observation values (Epoch: 2025-11-02T04:24:48.113Z)
Latitude
Longitude
-82.97434°
Altitude
495.78 km
Speed
7.618 km/s
True Right ascension
01h 39m 43s
True Declination
0° 00' 00"
Sunlit
Object was in full shadow at epoch
Visualization orbit readout
Latitude
Unknown
Longitude
Unknown
Altitude
Unknown
Speed
Unknown
Apparent Right ascension
Unknown
Apparent Declination
Unknown
Sunlit
N/A
Visualization observer readout
Local Sidereal Time
13:05:14
Azimuth
Unknown
Elevation
Unknown
Doppler factor
Unknown
Orbital elements
Apogee altitude
493.074 km
Perigee altitude
488.973 km
Semi-major axis
6,869.161 km
Eccentricity
0.0003
Inclination
97.4223°
RAAN
24.9294°
Arg. of periapsis
47.9688°
True anomaly
312.15495°
Mean anomaly
312.1803°
Eccentric anomaly
312.16762°
Mean motion
3.81231 °/min
Orbital period
94.43 mins
BSTAR
0.00048761
Loading maneuver chart data...
Computing Atmospheric mass density...
Loading historical data...
Loading historical data...
Loading historical data...
Loading historical data...
Loading historical data...
Loading historical data...
Loading historical data...

Documentation

Showing up to 5 results
|